Tracking 29892 objects as of 21-Nov-2024
HD Live streaming from Space Station
objects crossing your sky now

NOAA 16 DEB

Track NOAA 16 DEB now!
10-day predictions


NORAD ID: 42421
Int'l Code: 2000-055TR
Perigee: 827.0 km
Apogee: 950.2 km
Inclination: 98.9 °
Period: 102.6 minutes
Semi major axis: 7259 km
RCS: Unknown
Launch date: September 21, 2000
Source: United States (US)
Launch site: AIR FORCE WESTERN TEST RANGE (AFWTR)

Note: This is SATELLITE DEBRIS
Your satellite tracking list
Your tracking list is empty




NASA's NSSDC Master Catalog

Two Line Element Set (TLE):
1 42421U 00055TR  24318.20216871  .00006873  00000-0  42675-2 0  9998
2 42421  98.8657 295.6427 0084827 284.4979  74.6789 14.03570005408687
Source of the keplerian elements: AFSPC